Flag for Canada Weather past 2 weeks in Markham, Ontario, Canada

Now
55 °F

Passing clouds.


Feels Like: 53 °F
Forecast: 43 / 51 °F
Wind: 10 mph from Northwest

Location: Toronto Buttonville

Current Time: Oct 25, 2014 at 8:35:12 PM

Latest Report: Oct 25, 2014 at 8:00 PM


Visibility: 15 mi

Pressure: 29.62 "Hg

Humidity: 63%

Dew point: 43 °F

Location of MarkhamLocation

Historic Weather in Markham — Graph

°F

Markham temperature yesterday

Maximum temperature yesterday: 59 °F (at 4:00 PM)
Minimum temperature yesterday: 39 °F (at 8:00 AM)
Average temperature yesterday: 49 °F

Past Weeks' High & Low Weather Summary

 TemperatureHumidityPressure
High73 °F (Oct 14, 4:00 PM)100% (Oct 11, 1:00 AM)30.31 "Hg (Oct 11, 1:00 AM)
Low32 °F (Oct 12, 6:00 AM)41% (Oct 13, 7:00 PM)29.48 "Hg (Oct 18, 12:00 AM)
Average51 °F81%29.94 "Hg
* Reported Oct 10 7:00 PM — Oct 25 7:00 PM, Markham, Weather by CustomWeather, © 2014

Note: Actual official high and low records may vary slightly from our data, if they occured in-between our weather recording intervals... More about our weather records

Advertising

Markham weather history for previous 24 hours

 ConditionsComfort  
Time TempWeatherWind HumidityBarometerVisibility
7:00 PM
Oct 25
57 °FPassing clouds.5 mph55%29.60 "Hg15 mi
6:00 PM59 °FScattered clouds.9 mph48%29.60 "Hg15 mi
5:00 PM61 °FPartly sunny.10 mph48%29.60 "Hg15 mi
4:00 PM61 °FPartly sunny.12 mph59%29.59 "Hg15 mi
3:00 PM59 °FPartly sunny.6 mph72%29.61 "Hg12 mi
2:00 PM57 °FOvercast.15 mph77%29.62 "Hg12 mi
1:00 PM59 °FOvercast.13 mph68%29.63 "Hg15 mi
12:00 PM61 °FMostly cloudy.10 mph63%29.64 "Hg15 mi
11:45 AMN/ASprinkles.12 mphN/AN/A15 mi
11:00 AM57 °FPassing clouds.9 mph77%29.67 "Hg10 mi
10:00 AM54 °FScattered clouds.8 mph82%29.72 "Hg10 mi
9:00 AM52 °FPartly sunny.7 mph82%29.76 "Hg7 mi
8:00 AM48 °FPassing clouds.2 mph87%29.79 "Hg7 mi
7:00 AM48 °FPassing clouds.3 mph82%29.80 "Hg13 mi
6:00 AM50 °FPassing clouds.2 mph76%29.81 "Hg11 mi
5:00 AM52 °FPassing clouds.3 mph72%29.83 "Hg12 mi
4:00 AM52 °FPassing clouds.3 mph77%29.85 "Hg12 mi
3:00 AM52 °FOvercast.3 mph77%29.88 "Hg13 mi
2:00 AM50 °FOvercast.No wind82%29.89 "Hg15 mi
1:00 AM52 °FPassing clouds.No wind72%29.91 "Hg15 mi
12:00 AM50 °FOvercast.No wind76%29.92 "Hg14 mi
11:00 PM
Oct 24
50 °FMostly cloudy.No wind76%29.94 "Hg15 mi
10:00 PM46 °FPassing clouds.2 mph82%29.95 "Hg15 mi
9:00 PM48 °FPassing clouds.3 mph76%29.96 "Hg15 mi
8:00 PM48 °FPassing clouds.No wind82%29.96 "Hg15 mi
Weather by CustomWeather, © 2014

See weather overviewHow to use our weather pages